N1152H ENBR-ENZV

Flight info

Callsign N1152H
Flight time 0h 45m
Altitude 17000
Route BEGOD
Aircraft C414/L-SBDFGRY/S

Departure

Time 2026-04-25 18:33
Airport Bergen Airport, Flesland (ENBR)

Arrival

Time 2026-04-25 19:19
Airport Stavanger Airport, Sola (ENZV)
Time Latitude Longitude Altitude Speed Heading
2026-04-25 18:07 60.29963 5.22766 143 ft 0 kts 240°
2026-04-25 18:20 60.29962 5.22763 142 ft 4 kts 240°
2026-04-25 18:21 60.29917 5.22685 139 ft 10 kts 193°
2026-04-25 18:21 60.29854 5.22637 140 ft 7 kts 207°
2026-04-25 18:21 60.29824 5.22602 142 ft 4 kts 214°
2026-04-25 18:21 60.29809 5.22579 142 ft 5 kts 218°
2026-04-25 18:22 60.29771 5.22484 142 ft 9 kts 240°
2026-04-25 18:22 60.29753 5.22394 143 ft 11 kts 258°
2026-04-25 18:22 60.29741 5.22200 142 ft 9 kts 260°
2026-04-25 18:22 60.29734 5.22125 144 ft 6 kts 261°
2026-04-25 18:23 60.29713 5.22025 144 ft 7 kts 206°
2026-04-25 18:23 60.29651 5.22039 146 ft 9 kts 166°
2026-04-25 18:23 60.29596 5.22053 148 ft 7 kts 171°
2026-04-25 18:23 60.29537 5.22069 150 ft 8 kts 171°
2026-04-25 18:24 60.29520 5.22076 150 ft 7 kts 162°
2026-04-25 18:24 60.29460 5.22097 152 ft 11 kts 169°
2026-04-25 18:24 60.29371 5.22126 156 ft 13 kts 172°
2026-04-25 18:24 60.29299 5.22151 159 ft 9 kts 171°
2026-04-25 18:25 60.29241 5.22172 162 ft 8 kts 170°
2026-04-25 18:25 60.29173 5.22195 165 ft 11 kts 171°
2026-04-25 18:25 60.29109 5.22218 168 ft 9 kts 170°
2026-04-25 18:25 60.29046 5.22239 169 ft 10 kts 172°
2026-04-25 18:26 60.28953 5.22266 166 ft 17 kts 171°
2026-04-25 18:26 60.28837 5.22311 165 ft 16 kts 164°
2026-04-25 18:26 60.28725 5.22344 163 ft 16 kts 170°
2026-04-25 18:26 60.28612 5.22381 161 ft 17 kts 172°
2026-04-25 18:27 60.28499 5.22421 158 ft 17 kts 171°
2026-04-25 18:27 60.28380 5.22461 155 ft 18 kts 171°
2026-04-25 18:27 60.28255 5.22496 151 ft 18 kts 174°
2026-04-25 18:27 60.28141 5.22537 148 ft 12 kts 170°
2026-04-25 18:28 60.28085 5.22544 147 ft 8 kts 196°
2026-04-25 18:28 60.28058 5.22460 147 ft 6 kts 261°
2026-04-25 18:28 60.28058 5.22455 147 ft 0 kts 260°
2026-04-25 18:31 60.28054 5.22414 161 ft 6 kts 259°
2026-04-25 18:32 60.28046 5.22338 148 ft 9 kts 259°
2026-04-25 18:32 60.28065 5.22239 148 ft 0 kts 344°
2026-04-25 18:32 60.28089 5.22230 148 ft 22 kts 353°
2026-04-25 18:33 60.28432 5.22104 166 ft 72 kts 347°
2026-04-25 18:33 60.28977 5.21882 353 ft 91 kts 350°
2026-04-25 18:33 60.29623 5.21739 671 ft 97 kts 352°
2026-04-25 18:33 60.30330 5.21631 953 ft 102 kts 353°
2026-04-25 18:34 60.31023 5.21503 1301 ft 100 kts 353°
2026-04-25 18:34 60.31715 5.21366 1619 ft 99 kts 353°
2026-04-25 18:34 60.32399 5.21223 1891 ft 98 kts 353°
2026-04-25 18:34 60.33074 5.21067 2118 ft 98 kts 353°
2026-04-25 18:35 60.33744 5.20903 2318 ft 98 kts 353°
2026-04-25 18:35 60.34420 5.20719 2574 ft 98 kts 353°
2026-04-25 18:35 60.35091 5.20515 2833 ft 97 kts 353°
2026-04-25 18:35 60.35745 5.20174 3064 ft 101 kts 328°
2026-04-25 18:36 60.35855 5.18642 3262 ft 125 kts 271°
2026-04-25 18:36 60.35645 5.16898 3488 ft 129 kts 265°
2026-04-25 18:36 60.35393 5.15155 3753 ft 129 kts 264°
2026-04-25 18:36 60.35122 5.13427 4039 ft 129 kts 263°
2026-04-25 18:37 60.34840 5.11700 4288 ft 130 kts 263°
2026-04-25 18:37 60.34550 5.09972 4559 ft 130 kts 263°
2026-04-25 18:37 60.34259 5.08240 4866 ft 131 kts 263°
2026-04-25 18:37 60.33965 5.06490 5100 ft 132 kts 263°
2026-04-25 18:38 60.33671 5.04742 5368 ft 131 kts 262°
2026-04-25 18:38 60.33381 5.03028 5612 ft 131 kts 262°
2026-04-25 18:38 60.33087 5.01291 5847 ft 130 kts 263°
2026-04-25 18:38 60.32792 4.99567 6081 ft 130 kts 262°
2026-04-25 18:39 60.32496 4.97828 6320 ft 132 kts 262°
2026-04-25 18:39 60.32202 4.96082 6571 ft 131 kts 263°
2026-04-25 18:39 60.31905 4.94339 6802 ft 132 kts 263°
2026-04-25 18:39 60.31439 4.92689 7091 ft 148 kts 229°
2026-04-25 18:40 60.30427 4.92058 7490 ft 162 kts 174°
2026-04-25 18:40 60.29384 4.92886 7873 ft 163 kts 153°
2026-04-25 18:40 60.28270 4.93448 8267 ft 167 kts 173°
2026-04-25 18:40 60.27109 4.93740 8666 ft 169 kts 174°
2026-04-25 18:41 60.25932 4.94082 9067 ft 172 kts 172°
2026-04-25 18:41 60.24738 4.94468 9478 ft 175 kts 172°
2026-04-25 18:41 60.23529 4.94879 9879 ft 177 kts 172°
2026-04-25 18:41 60.22303 4.95313 10257 ft 180 kts 171°
2026-04-25 18:42 60.21079 4.95749 10614 ft 182 kts 172°
2026-04-25 18:42 60.20654 4.95900 10731 ft 183 kts 172°
2026-04-25 18:42 60.18547 4.96653 11331 ft 187 kts 172°
2026-04-25 18:42 60.17261 4.97112 11689 ft 189 kts 172°
2026-04-25 18:43 60.15958 4.97577 12045 ft 191 kts 172°
2026-04-25 18:43 60.14640 4.98046 12401 ft 194 kts 172°
2026-04-25 18:43 60.13307 4.98521 12758 ft 196 kts 173°
2026-04-25 18:43 60.11957 4.99001 13118 ft 198 kts 173°
2026-04-25 18:44 60.10593 4.99487 13480 ft 200 kts 173°
2026-04-25 18:44 60.09212 4.99978 13836 ft 202 kts 173°
2026-04-25 18:44 60.07818 5.00473 14168 ft 204 kts 173°
2026-04-25 18:44 60.06411 5.00972 14486 ft 206 kts 174°
2026-04-25 18:45 60.04993 5.01474 14799 ft 208 kts 174°
2026-04-25 18:45 60.03561 5.01981 15110 ft 209 kts 174°
2026-04-25 18:45 60.02120 5.02491 15428 ft 211 kts 174°
2026-04-25 18:45 60.00669 5.03005 15738 ft 213 kts 174°
2026-04-25 18:46 59.99205 5.03521 16061 ft 214 kts 175°
2026-04-25 18:46 59.97733 5.04041 16377 ft 216 kts 175°
2026-04-25 18:46 59.96249 5.04564 16693 ft 217 kts 175°
2026-04-25 18:46 59.94754 5.05090 17013 ft 219 kts 175°
2026-04-25 18:47 59.93216 5.05621 17139 ft 233 kts 175°
2026-04-25 18:47 59.91581 5.06188 17159 ft 250 kts 174°
2026-04-25 18:47 59.89819 5.06804 17166 ft 263 kts 174°
2026-04-25 18:47 59.87974 5.07449 17167 ft 273 kts 174°
2026-04-25 18:48 59.86079 5.08121 17161 ft 280 kts 174°
2026-04-25 18:48 59.84141 5.08806 17164 ft 285 kts 174°
2026-04-25 18:48 59.82173 5.09499 17160 ft 288 kts 174°
2026-04-25 18:48 59.80186 5.10197 17163 ft 290 kts 174°
2026-04-25 18:49 59.78187 5.10897 17159 ft 292 kts 174°
2026-04-25 18:49 59.76181 5.11596 17164 ft 293 kts 174°
2026-04-25 18:49 59.74169 5.12297 17164 ft 294 kts 174°
2026-04-25 18:49 59.72154 5.12997 17162 ft 294 kts 173°
2026-04-25 18:50 59.70139 5.13697 17161 ft 294 kts 174°
2026-04-25 18:50 59.68120 5.14397 17160 ft 294 kts 174°
2026-04-25 18:50 59.66127 5.15087 17159 ft 294 kts 174°
2026-04-25 18:50 59.64109 5.15741 17158 ft 294 kts 176°
2026-04-25 18:51 59.62052 5.16242 17159 ft 293 kts 179°
2026-04-25 18:51 59.61394 5.16362 17158 ft 293 kts 180°
2026-04-25 18:51 59.58023 5.16890 17156 ft 292 kts 181°
2026-04-25 18:51 59.55993 5.17205 17158 ft 292 kts 180°
2026-04-25 18:52 59.53962 5.17527 17158 ft 293 kts 180°
2026-04-25 18:52 59.51932 5.17855 17156 ft 292 kts 180°
2026-04-25 18:52 59.49902 5.18185 17155 ft 292 kts 180°
2026-04-25 18:52 59.47871 5.18517 17156 ft 292 kts 180°
2026-04-25 18:53 59.45844 5.18848 17156 ft 292 kts 180°
2026-04-25 18:53 59.43815 5.19180 17154 ft 292 kts 180°
2026-04-25 18:53 59.41791 5.19510 17156 ft 292 kts 180°
2026-04-25 18:53 59.39760 5.19841 17155 ft 292 kts 180°
2026-04-25 18:54 59.35723 5.20009 17154 ft 290 kts 186°
2026-04-25 18:54 59.33706 5.20009 17155 ft 290 kts 186°
2026-04-25 18:54 59.31685 5.20028 17157 ft 290 kts 186°
2026-04-25 18:55 59.29667 5.20063 17155 ft 290 kts 186°
2026-04-25 18:55 59.27649 5.20109 17154 ft 290 kts 185°
2026-04-25 18:55 59.25626 5.20158 17148 ft 290 kts 185°
2026-04-25 18:55 59.23608 5.20209 17150 ft 290 kts 185°
2026-04-25 18:56 59.21588 5.20262 17149 ft 290 kts 185°
2026-04-25 18:56 59.19536 5.20309 16805 ft 303 kts 185°
2026-04-25 18:56 59.17379 5.20354 16315 ft 316 kts 184°
2026-04-25 18:56 59.15159 5.20411 15845 ft 321 kts 184°
2026-04-25 18:57 59.12957 5.20479 15174 ft 308 kts 184°
2026-04-25 18:57 59.10854 5.20546 14438 ft 297 kts 184°
2026-04-25 18:57 59.08807 5.20604 13683 ft 291 kts 184°
2026-04-25 18:57 59.08150 5.20621 13421 ft 289 kts 184°
2026-04-25 18:58 59.04857 5.20705 12097 ft 280 kts 183°
2026-04-25 18:58 59.01024 5.20803 10584 ft 271 kts 182°
2026-04-25 18:58 58.99155 5.20851 9825 ft 266 kts 182°
2026-04-25 18:59 58.95530 5.20943 8299 ft 254 kts 181°
2026-04-25 18:59 58.92096 5.21030 6871 ft 243 kts 180°
2026-04-25 19:00 58.88772 5.21115 5397 ft 235 kts 179°
2026-04-25 19:00 58.87164 5.21155 4902 ft 224 kts 179°
2026-04-25 19:01 58.84262 5.21229 4474 ft 193 kts 179°
2026-04-25 19:01 58.82957 5.21261 4333 ft 183 kts 179°
2026-04-25 19:01 58.81709 5.21291 4198 ft 176 kts 179°
2026-04-25 19:01 58.80506 5.21321 4064 ft 171 kts 179°
2026-04-25 19:02 58.78182 5.21381 3860 ft 162 kts 179°
2026-04-25 19:02 58.77075 5.21409 3801 ft 157 kts 180°
2026-04-25 19:02 58.75999 5.21378 3746 ft 153 kts 186°
2026-04-25 19:03 58.74628 5.20978 3675 ft 149 kts 192°
2026-04-25 19:03 58.72942 5.20483 3587 ft 146 kts 190°
2026-04-25 19:03 58.71942 5.20192 3540 ft 145 kts 191°
2026-04-25 19:04 58.69952 5.19874 3449 ft 143 kts 165°
2026-04-25 19:04 58.68996 5.20381 3394 ft 143 kts 164°
2026-04-25 19:05 58.67036 5.21040 3283 ft 143 kts 167°
2026-04-25 19:05 58.65720 5.22458 3163 ft 124 kts 99°
2026-04-25 19:05 58.65693 5.23936 3042 ft 105 kts 54°
2026-04-25 19:06 58.66005 5.25203 2923 ft 110 kts 56°
2026-04-25 19:06 58.66533 5.28317 2667 ft 131 kts 60°
2026-04-25 19:06 58.66824 5.30021 2528 ft 136 kts 59°
2026-04-25 19:07 58.67427 5.33496 2241 ft 137 kts 60°
2026-04-25 19:07 58.67731 5.35225 2099 ft 137 kts 59°
2026-04-25 19:08 58.68326 5.38585 2023 ft 128 kts 58°
2026-04-25 19:08 58.68611 5.40192 2015 ft 125 kts 58°
2026-04-25 19:09 58.69435 5.44812 2007 ft 118 kts 58°
2026-04-25 19:09 58.69611 5.45797 2009 ft 117 kts 58°
2026-04-25 19:09 58.70216 5.49186 2016 ft 114 kts 58°
2026-04-25 19:10 58.70477 5.50638 2016 ft 115 kts 58°
2026-04-25 19:10 58.70740 5.52104 2003 ft 117 kts 57°
2026-04-25 19:10 58.71021 5.53557 2009 ft 115 kts 55°
2026-04-25 19:10 58.71310 5.54974 2007 ft 115 kts 55°
2026-04-25 19:11 58.71601 5.56408 1998 ft 114 kts 56°
2026-04-25 19:11 58.71885 5.57830 1997 ft 113 kts 56°
2026-04-25 19:11 58.72171 5.59250 1972 ft 114 kts 56°
2026-04-25 19:11 58.72458 5.60688 1948 ft 115 kts 56°
2026-04-25 19:12 58.72747 5.62135 1925 ft 116 kts 55°
2026-04-25 19:12 58.73087 5.63511 1913 ft 109 kts 37°
2026-04-25 19:12 58.73718 5.64190 1745 ft 106 kts
2026-04-25 19:12 58.74421 5.64278 1633 ft 96 kts 357°
2026-04-25 19:13 58.75056 5.64256 1611 ft 87 kts 355°
2026-04-25 19:13 58.75641 5.64206 1570 ft 84 kts 354°
2026-04-25 19:13 58.76211 5.64157 1600 ft 81 kts 354°
2026-04-25 19:13 58.76784 5.64113 1601 ft 79 kts 355°
2026-04-25 19:14 58.77298 5.64092 1597 ft 71 kts 355°
2026-04-25 19:14 58.77627 5.64083 1598 ft 69 kts 355°
2026-04-25 19:14 58.78272 5.64058 1597 ft 74 kts 356°
2026-04-25 19:14 58.78811 5.64047 1610 ft 81 kts 357°
2026-04-25 19:15 58.79391 5.64038 1604 ft 85 kts 356°
2026-04-25 19:15 58.79986 5.64024 1467 ft 83 kts 355°
2026-04-25 19:15 58.80536 5.64014 1380 ft 75 kts 355°
2026-04-25 19:15 58.81057 5.64007 1249 ft 74 kts 353°
2026-04-25 19:16 58.81552 5.63989 1213 ft 71 kts 353°
2026-04-25 19:16 58.82091 5.63953 1058 ft 83 kts 353°
2026-04-25 19:16 58.82678 5.63918 916 ft 84 kts 354°
2026-04-25 19:16 58.83264 5.63911 840 ft 85 kts 354°
2026-04-25 19:17 58.83866 5.63904 717 ft 88 kts 353°
2026-04-25 19:17 58.84481 5.63904 606 ft 87 kts 353°
2026-04-25 19:17 58.85083 5.63864 441 ft 86 kts 354°
2026-04-25 19:17 58.85652 5.63855 309 ft 80 kts 356°
2026-04-25 19:18 58.86211 5.63864 248 ft 81 kts 354°
2026-04-25 19:18 58.86779 5.63807 136 ft 84 kts 356°
2026-04-25 19:18 58.87323 5.63786 46 ft 68 kts 357°
2026-04-25 19:18 58.87737 5.63781 27 ft 54 kts 358°
2026-04-25 19:19 58.88096 5.63771 25 ft 49 kts 360°
2026-04-25 19:19 58.88421 5.63762 25 ft 45 kts 360°
2026-04-25 19:19 58.88726 5.63752 19 ft 43 kts 356°
2026-04-25 19:19 58.88920 5.63744 16 ft 41 kts
2026-04-25 19:20 58.89164 5.63738 16 ft 4 kts 352°
2026-04-25 19:20 58.89233 5.63730 16 ft 19 kts 357°
2026-04-25 19:20 58.89327 5.63632 14 ft 14 kts 309°
2026-04-25 19:20 58.89345 5.63513 13 ft 6 kts 268°
2026-04-25 19:21 58.89343 5.63440 13 ft 5 kts 265°
2026-04-25 19:21 58.89353 5.63310 13 ft 3 kts 299°
2026-04-25 19:21 58.89349 5.63257 13 ft 0 kts 179°
2026-04-25 19:22 58.89346 5.63259 13 ft 0 kts 154°